Date String (YYYY-MM-DD hh:mm:ss) UTC,Instrument flags,Ambient pressure (hPa),Sample flow (lpm),Bypass flow (lpm),Sample temperature (°C),Ambient temperature (°C),ASC tube jacket temperature (°C),LED temperature (°C),Box temperature (°C),Sample RH (%),Span deviation,Mass concentration (μg/m³),Mass concentration (μg/m³),Mass concentration (μg/m³)
DateTimeUTC,F1_M11,P_M11,Q1_M11,Q2_M11,T1_M11,T2_M11,T3_M11,T4_M11,T5_M11,U1_M11,ZSPAN_M11,X0_M11,X2_M11,X1_M11
2022-04-12 22:00:00,,0809.0,4.99,0.00,22.3,21.2,00.0,31.2,24.0,06.6,0000.0,0011.10,0003.50,0000.91
2022-04-12 22:01:00,,0809.0,4.99,0.00,22.2,21.2,00.0,31.2,23.9,06.7,0000.0,0011.31,0003.46,0000.90
2022-04-12 22:02:00,,0809.0,5.02,0.00,22.2,21.2,00.0,31.2,24.0,06.8,0000.0,0010.57,0003.36,0000.89
2022-04-12 22:03:00,,0809.0,5.00,0.00,22.2,21.2,00.0,31.2,24.0,06.8,0000.0,0010.70,0003.35,0000.89
2022-04-12 22:04:00,,0808.9,4.99,0.00,22.2,21.2,00.0,31.2,24.0,07.0,0000.0,0010.74,0003.32,0000.90
2022-04-12 22:05:00,,0809.0,5.00,0.00,22.2,21.2,00.0,31.2,24.0,07.1,0000.0,0010.79,0003.35,0000.92
2022-04-12 22:06:00,,0809.0,5.00,0.00,22.2,21.2,00.0,31.2,24.0,07.2,0000.0,0010.54,0003.35,0000.93
2022-04-12 22:07:00,,0809.0,5.01,0.00,22.2,21.2,00.0,31.2,24.0,06.8,0000.0,0009.67,0003.29,0000.93
2022-04-12 22:08:00,,0809.0,5.00,0.00,22.2,21.2,00.0,31.2,24.0,07.1,0000.0,0009.22,0003.22,0000.93
2022-04-12 22:09:00,,0809.0,4.99,0.00,22.2,21.2,00.0,31.2,24.0,07.4,0000.0,0008.58,0003.13,0000.94
2022-04-12 22:10:00,,0808.9,5.01,0.00,22.2,21.2,00.0,31.2,24.0,07.4,0000.0,0008.22,0003.01,0000.96
2022-04-12 22:11:00,,0809.0,4.99,0.00,22.2,21.2,00.0,31.2,24.0,07.4,0000.0,0008.83,0002.90,0000.97
2022-04-12 22:12:00,,0808.9,5.00,0.00,22.2,21.2,00.0,31.2,24.0,07.3,0000.0,0008.36,0002.89,0000.99
2022-04-12 22:13:00,,0809.0,5.00,0.00,22.2,21.1,00.0,31.2,24.0,07.4,0000.0,0008.32,0002.93,0001.02
2022-04-12 22:14:00,,0808.9,4.99,0.00,22.2,21.1,00.0,31.2,24.0,07.4,0000.0,0008.15,0002.88,0001.04
2022-04-12 22:15:00,,0808.8,5.02,0.00,22.2,21.1,00.0,31.2,24.0,07.4,0000.0,0007.74,0002.69,0001.03
2022-04-12 22:16:00,,0808.9,5.01,0.00,22.2,21.1,00.0,31.2,24.0,07.4,0000.0,0007.50,0002.56,0001.03
2022-04-12 22:17:00,,0809.0,4.99,0.00,22.2,21.1,00.0,31.1,24.0,07.1,0000.0,0007.62,0002.63,0001.04
2022-04-12 22:18:00,,0809.0,4.99,0.00,22.2,21.1,00.0,31.1,24.0,07.2,0000.0,0007.87,0002.79,0001.05
2022-04-12 22:19:00,,0809.1,5.00,0.00,22.2,21.1,00.0,31.1,24.0,07.4,0000.0,0008.07,0002.82,0001.05
2022-04-12 22:20:00,,0809.1,5.00,0.00,22.2,21.1,00.0,31.1,24.0,07.4,0000.0,0008.24,0002.81,0001.05
2022-04-12 22:21:00,,0809.1,5.00,0.00,22.2,21.1,00.0,31.1,23.9,07.4,0000.0,0008.44,0002.89,0001.05
2022-04-12 22:22:00,,0809.0,5.00,0.00,22.2,21.1,00.0,31.1,23.9,07.5,0000.0,0007.92,0002.94,0001.03
2022-04-12 22:23:00,,0809.1,4.99,0.00,22.2,21.0,00.0,31.1,23.9,07.3,0000.0,0008.50,0002.97,0001.01
2022-04-12 22:24:00,,0809.1,5.01,0.00,22.1,21.0,00.0,31.1,23.9,07.3,0000.0,0008.94,0002.92,0000.99
2022-04-12 22:25:00,,0809.2,4.99,0.00,22.1,21.0,00.0,31.1,23.9,07.3,0000.0,0009.46,0002.94,0000.98
2022-04-12 22:26:00,,0809.2,4.99,0.00,22.1,21.0,00.0,31.1,23.9,07.3,0000.0,0009.56,0002.98,0000.97
2022-04-12 22:27:00,,0809.3,4.99,0.00,22.1,21.0,00.0,31.1,23.9,07.2,0000.0,0009.58,0002.97,0000.94
2022-04-12 22:28:00,,0809.2,5.01,0.00,22.1,21.1,00.0,31.1,23.9,07.4,0000.0,0009.38,0002.83,0000.91
2022-04-12 22:29:00,,0809.2,5.00,0.00,22.1,21.0,00.0,31.1,23.9,07.2,0000.0,0009.08,0002.60,0000.90
2022-04-12 22:30:00,,0809.1,4.99,0.00,22.1,21.0,00.0,31.1,23.9,07.1,0000.0,0009.02,0002.53,0000.88
2022-04-12 22:31:00,,0809.2,5.01,0.00,22.1,21.0,00.0,31.1,23.9,06.8,0000.0,0009.27,0002.54,0000.85
2022-04-12 22:32:00,,0809.2,5.01,0.00,22.1,21.0,00.0,31.1,23.9,06.7,0000.0,0009.16,0002.49,0000.82
2022-04-12 22:33:00,,0809.1,5.01,0.00,22.1,21.0,00.0,31.0,23.9,06.7,0000.0,0009.49,0002.50,0000.81
2022-04-12 22:34:00,,0809.3,4.99,0.00,22.1,21.0,00.0,31.0,23.8,06.7,0000.0,0008.80,0002.46,0000.80
2022-04-12 22:35:00,,0809.3,5.00,0.00,22.1,21.0,00.0,31.0,23.8,06.7,0000.0,0008.32,0002.45,0000.79
2022-04-12 22:36:00,,0809.3,5.00,0.00,22.1,21.0,00.0,31.0,23.9,07.0,0000.0,0007.61,0002.34,0000.77
2022-04-12 22:37:00,,0809.0,4.99,0.00,22.1,21.0,00.0,31.0,23.9,07.0,0000.0,0008.25,0002.39,0000.75
2022-04-12 22:38:00,,0809.3,4.99,0.00,22.1,20.9,00.0,31.0,23.8,06.8,0000.0,0009.17,0002.47,0000.75
2022-04-12 22:39:00,,0809.3,5.01,0.00,22.0,20.9,00.0,31.0,23.8,07.0,0000.0,0009.30,0002.44,0000.74
2022-04-12 22:40:00,,0809.3,5.00,0.00,22.0,20.9,00.0,31.0,23.8,07.0,0000.0,0009.31,0002.42,0000.73
2022-04-12 22:41:00,,0809.3,4.99,0.00,22.0,20.9,00.0,31.0,23.8,07.0,0000.0,0009.22,0002.41,0000.72
2022-04-12 22:42:00,,0809.3,5.00,0.00,22.0,20.9,00.0,31.0,23.8,06.9,0000.0,0008.82,0002.39,0000.72
2022-04-12 22:43:00,,0809.3,5.00,0.00,22.0,20.9,00.0,31.0,23.8,06.8,0000.0,0008.73,0002.40,0000.73
2022-04-12 22:44:00,,0809.3,5.00,0.00,22.0,20.8,00.0,31.0,23.8,06.8,0000.0,0008.30,0002.39,0000.74
2022-04-12 22:45:00,,0809.3,5.01,0.00,22.0,20.8,00.0,31.0,23.7,06.8,0000.0,0008.60,0002.33,0000.74
2022-04-12 22:46:00,,0809.5,4.99,0.00,22.0,20.8,00.0,30.9,23.7,06.8,0000.0,0008.65,0002.25,0000.72
2022-04-12 22:47:00,,0809.6,5.00,0.00,22.0,20.7,00.0,30.9,23.7,06.8,0000.0,0009.04,0002.33,0000.71
2022-04-12 22:48:00,,0809.6,4.99,0.00,22.0,21.2,00.0,31.0,23.8,06.8,0000.0,0008.81,0002.30,0000.71
2022-04-12 22:49:00,,0809.8,5.00,0.00,22.1,22.1,00.0,31.0,24.1,06.8,0000.0,0007.93,0002.19,0000.70
2022-04-12 22:50:00,,0809.9,5.01,0.00,22.3,23.0,00.0,31.1,24.4,06.8,0000.0,0007.77,0002.19,0000.70
2022-04-12 22:51:00,,0809.8,5.00,0.00,22.4,23.1,00.0,31.1,24.4,06.8,0000.0,0007.70,0002.17,0000.70
2022-04-12 22:52:00,,0809.9,5.00,0.00,22.4,22.8,00.0,31.1,24.4,06.8,0000.0,0008.20,0002.23,0000.71
2022-04-12 22:53:00,,0809.8,5.00,0.00,22.4,22.5,00.0,31.1,24.4,06.8,0000.0,0008.47,0002.25,0000.71
2022-04-12 22:54:00,,0809.8,5.00,0.00,22.4,22.2,00.0,31.2,24.3,06.8,0000.0,0008.51,0002.18,0000.70
2022-04-12 22:55:00,,0809.9,5.00,0.00,22.4,22.0,00.0,31.2,24.3,06.8,0000.0,0008.89,0002.12,0000.68
2022-04-12 22:56:00,,0810.0,5.00,0.00,22.4,21.8,00.0,31.2,24.3,06.7,0000.0,0008.52,0002.12,0000.67
2022-04-12 22:57:00,,0809.9,4.99,0.00,22.4,21.7,00.0,31.2,24.2,06.8,0000.0,0008.48,0002.13,0000.68
2022-04-12 22:58:00,,0810.0,4.99,0.00,22.4,21.5,00.0,31.2,24.2,06.7,0000.0,0008.55,0002.09,0000.70
2022-04-12 22:59:00,,0809.9,5.00,0.00,22.4,21.4,00.0,31.2,24.1,06.7,0000.0,0008.49,0002.07,0000.72
